Flag for U.S.A. Weather past 2 weeks in Berkeley, California, U.S.A.

Now
63 °F

Overcast.


Feels Like: 63 °F
Forecast: 61 / 74 °F
Wind: 7 mph from Northwest

Location: Metro Oakland International Airport

Current Time: Sep 2, 2014 at 10:39:35 PM

Latest Report: Sep 2, 2014 at 9:52 PM


Visibility: 10 mi

Pressure: 29.80 "Hg

Humidity: 78%

Dew point: 56 °F

Location of BerkeleyLocation

Historic Weather in Berkeley — Graph

°F

Berkeley temperature yesterday

Maximum temperature yesterday: 83 °F (at 1:53 PM)
Minimum temperature yesterday: 58 °F (at 5:53 AM)
Average temperature yesterday: 69 °F

Past Weeks' High & Low Weather Summary

 TemperatureHumidityPressure
High83 °F (Sep 1, 1:53 PM)90% (Aug 30, 6:53 AM)30.08 "Hg (Aug 30, 6:53 AM)
Low58 °F (Sep 1, 5:53 AM)42% (Sep 1, 2:53 PM)29.76 "Hg (Sep 1, 6:53 PM)
Average66 °F71%29.91 "Hg
* Reported Aug 18 8:53 PM — Sep 2 8:53 PM, Berkeley, Weather by CustomWeather, © 2014

Note: Actual official high and low records may vary slightly from our data, if they occured in-between our weather recording intervals... More about our weather records

Advertising

Berkeley weather history for previous 24 hours

 ConditionsComfort  
Time TempWeatherWind HumidityBarometerVisibility
8:53 PM
Sep 2
63 °FLow clouds.8 mph78%29.80 "Hg10 mi
7:53 PM64 °FPartly sunny.N/A75%29.79 "Hg10 mi
6:53 PM65 °FPartly sunny.14 mph73%29.79 "Hg10 mi
5:53 PM67 °FScattered clouds.15 mph71%29.80 "Hg10 mi
4:53 PM69 °FPassing clouds.18 mph66%29.80 "Hg10 mi
3:53 PM70 °FPassing clouds.16 mph66%29.81 "Hg10 mi
2:53 PM71 °FPassing clouds.17 mph61%29.83 "Hg10 mi
1:53 PM71 °FPassing clouds.16 mph61%29.84 "Hg10 mi
12:53 PM70 °FScattered clouds.12 mph66%29.86 "Hg10 mi
11:53 AM69 °FPartly sunny.8 mph66%29.86 "Hg10 mi
10:53 AM67 °FPartly sunny.6 mph73%29.86 "Hg10 mi
9:53 AM65 °FOvercast.5 mph76%29.86 "Hg10 mi
8:53 AM64 °FMore clouds than sun.8 mph78%29.85 "Hg10 mi
8:00 AM63 °FMore clouds than sun.5 mph83%29.85 "Hg7 mi
6:53 AM62 °FOvercast.8 mph80%29.83 "Hg8 mi
6:02 AM61 °FPassing clouds.6 mph83%29.82 "Hg9 mi
5:53 AM61 °FPassing clouds.5 mph83%29.81 "Hg9 mi
4:53 AM62 °FPassing clouds.6 mph83%29.80 "Hg10 mi
3:53 AM62 °FClear.6 mph83%29.80 "Hg10 mi
2:53 AM60 °FClear.No wind86%29.79 "Hg9 mi
1:53 AM61 °FClear.3 mph81%29.79 "Hg9 mi
12:53 AM63 °FClear.3 mph81%29.80 "Hg10 mi
11:53 PM
Sep 1
63 °FClear.5 mph81%29.80 "Hg10 mi
10:53 PM64 °FClear.7 mph78%29.80 "Hg10 mi
Weather by CustomWeather, © 2014

See weather overviewHow to use our weather pages